Regional Weather Roundup
Issued by NWS

Home | Current Version | Previous Version | Text Only | Print | Product List | Glossary Off
Versions: 1 2 3 4 5 6 7 8 9 10 11 12 13 14 15 16 17 18 19 20 21 22 23 24 25 26 27 28

000
ASUS45 KCYS 181610
RWRWY

WYOMING REGIONAL WEATHER ROUNDUP
NATIONAL WEATHER SERVICE CHEYENNE WY
900 AM MST SAT FEB 18 2017

NOTE:  "FAIR" INDICATES FEW OR NO CLOUDS BELOW 12,000 FEET
WITH NO SIGNIFICANT WEATHER AND/OR OBSTRUCTIONS TO VISIBILITY.

WYZ001-181700-
YELLOWSTONE NATIONAL PARK

CITY           SKY/WX    TMP DP  RH WIND       PRES   REMARKS
LK YELLOWSTONE   N/A     30  29  96 CALM      29.68S
W YELLOWSTONE  NOT AVBL

$$
WYZ002>013-054>058-071-098>099-181700-
NORTHERN WYOMING

CITY           SKY/WX    TMP DP  RH WIND       PRES   REMARKS
JACKSON        CLOUDY    34  34 100 S8        29.69S WCI  27
CODY           FAIR      39  29  67 S9        29.61R WCI  33
GREYBULL       FAIR      38  32  79 S5        29.61R WCI  34
WORLAND        FAIR      33  32  96 NW3       29.61R
SHERIDAN       FAIR      36  28  73 S7        29.59R WCI  30
BUFFALO        FAIR      47  30  51 S3        29.60R
GILLETTE       FAIR      49  33  54 SW24G33   29.59R
HULETT         FAIR      48  32  53 SW24G36   29.60R
NEWCASTLE      FAIR      46  23  39 SE13      29.68S

$$
WYZ014>020-022>026-101>103-181700-
CENTRAL WYOMING

CITY           SKY/WX    TMP DP  RH WIND       PRES   REMARKS
BIG PINEY      CLOUDY    26  24  92 NW3       29.76R
PINEDALE       CLOUDY    32  28  86 CALM      29.76R
DUBOIS         CLOUDY    36  27  69 NW12      29.66S WCI  27
LANDER         FAIR      35  26  69 S5        29.64R WCI  31
RIVERTON       FAIR      32  30  92 NW3       29.65R
CASPER         FAIR      47  33  58 SW26      29.67F
DOUGLAS        FAIR      51  29  42 SW10      29.69F

$$
WYZ021-027>030-104>119-181700-
SOUTHERN WYOMING

CITY           SKY/WX    TMP DP  RH WIND       PRES   REMARKS
EVANSTON       FLURRIES  32  26  78 E7        29.73R WCI  26
KEMMERER       FLURRIES  32  28  86 CALM      29.74S
FORT BRIDGER   CLOUDY    31  29  95 W8        29.77R WCI  23
ROCK SPRINGS   FAIR      40  30  67 S29G38    29.72S WCI  29
DIXON            N/A     42  31  65 CALM      29.83S
RAWLINS        FAIR      43  29  57 S14       29.76R
SARATOGA       PTSUNNY   41  28  60 MISG      29.78S
LARAMIE        FAIR      41  27  57 SE3       29.79R
CHEYENNE       FAIR      40  20  44 SW5       29.77R
TORRINGTON     FAIR      45  25  45 SE10      29.72S
PINE BLUFFS    PTSUNNY   41  27  56 S8        29.77F

$$




USA.gov is the U.S. government's official web portal to all federal, state and local government web resources and services.